This is the latest recevied weather packets stored in our database for station/object K4HOG. If no packets are shown the sender has not sent any weather packets the latest 10 day(s).
| Time | Temp. | Humidity | Pressure | Rain* | Wind** | Luminosity | Snow |
|---|---|---|---|---|---|---|---|
| 1778099565 | 34.44° C | 46% | 1014.4 hPa | 0 mm | - | 562 W/m² | - |
| 1778099262 | 33.89° C | 45% | 1014.4 hPa | 0 mm | - | 527 W/m² | - |
| 1778098958 | 33.33° C | 45% | 1014.5 hPa | 0 mm | - | 538 W/m² | - |
| 1778098655 | 34.44° C | 43% | 1014.4 hPa | 0 mm | - | 250 W/m² | - |
| 1778098352 | 33.89° C | 45% | 1014.4 hPa | 0 mm | - | 526 W/m² | - |
| 1778098049 | 33.33° C | 45% | 1014.7 hPa | 0 mm | - | 572 W/m² | - |
| 1778097746 | 33.33° C | 46% | 1014.6 hPa | 0 mm | - | 499 W/m² | - |
| 1778097442 | 33.33° C | 45% | 1014.7 hPa | 0 mm | - | 352 W/m² | - |
| 1778097139 | 33.89° C | 45% | 1014.7 hPa | 0 mm | - | 482 W/m² | - |
| 1778096836 | 33.89° C | 45% | 1014.5 hPa | 0 mm | - | 442 W/m² | - |
| 1778096532 | 33.89° C | 44% | 1014.8 hPa | 0 mm | - | 426 W/m² | - |
| 1778096231 | 34.44° C | 43% | 1014.8 hPa | 0 mm | - | 507 W/m² | - |
| 1778095927 | 34.44° C | 45% | 1014.8 hPa | 0 mm | - | 717 W/m² | - |
| 1778095624 | 33.89° C | 45% | 1015 hPa | 0 mm | - | 737 W/m² | - |
| 1778095320 | 34.44° C | 43% | 1014.9 hPa | 0 mm | - | 714 W/m² | - |
| 1778095017 | 33.89° C | 43% | 1015.2 hPa | 0 mm | - | 739 W/m² | - |
| 1778094713 | 34.44° C | 43% | 1015.2 hPa | 0 mm | - | 810 W/m² | - |
| 1778094411 | 33.33° C | 44% | 1015.2 hPa | 0 mm | - | 724 W/m² | - |
| 1778094107 | 33.89° C | 45% | 1015.2 hPa | 0 mm | - | 786 W/m² | - |
| 1778093804 | 34.44° C | 44% | 1015.3 hPa | 0 mm | - | 818 W/m² | - |
| 1778093500 | 33.89° C | 44% | 1015.4 hPa | 0 mm | - | 805 W/m² | - |
| 1778093198 | 33.33° C | 47% | 1015.4 hPa | 0 mm | - | 806 W/m² | - |
| 1778092895 | 33.33° C | 45% | 1015.4 hPa | 0 mm | - | 820 W/m² | - |
| 1778092592 | 33.33° C | 45% | 1015.5 hPa | 0 mm | - | 830 W/m² | - |
| 1778092287 | 33.33° C | 46% | 1015.6 hPa | 0 mm | - | 848 W/m² | - |
* Rain latest hour (hover to see other rain measurements)
** Current wind speed in m/s (hover to see current wind gust speed)